Location: Gadern
(49.5873°N, 8.8138°E)
Time: 19:43:23
(UTC+00:00)

Cosmos 1867 - Pass Details

Date: 19 May 2025
Orbit: 775 x 798 km, 65.0° (Epoch: 20 June)

Event Time Altitude Azimuth Distance (km) Brightness Sun altitude
Rises 19:47:15 0° 321° (NW) 3,314 9.0 -5.9°
Reaches altitude 10° 19:49:47 10° 327° (NNW) 2,380 7.6 -6.2°
Maximum altitude 19:55:06 50° 42° (NE) 1,011 4.2 -6.8°
Drops below altitude 10° 20:00:23 10° 118° (ESE) 2,361 5.4 -7.5°
Enters shadow 20:00:46 - 119° (ESE) 2,500 5.5 -7.5°
